Torna al catalogo

SL-12 R/B(2)

AttivoGEO
NORAD 17873·ROCKET BODY·🇷🇺 Russia

Lanciato Apr 25, 1979 da Baikonur Cosmodrome

Loading…

TLE

AggiornatoSource: Space-Track

Epoca: Sep 14, 2026, 08:33 UTC

1 17873U 79035E   26257.35671171 -.00000197  00000-0  00000-0 0  9991
2 17873   5.0016 281.0177 0027241 258.3952 279.6560  1.00189516186063

Traccia SL-12 R/B(2) in tempo reale con AllMySat

Download on the App Store